[[{"header":{"parameterUnit":"m.s-1","parameterCategory":1,"la1":30.2991,"la2":30.254,"lo1":-89.0895,"lo2":-89.0444,"dy":0.0017,"dx":0.0017,"nx":28,"ny":28,"refTime":"2024-04-08T09:00:00:Z","depth":0,"parameterNumber":2,"parameterNumberName":"U-component_of_WINDS"},"data":[0,0,0,0,0,0,0,0,0,0,0,0,0,0,0,0,0,0,0,0,0,0,0,0,0,0,0,0,0,0,0,0,0,0,0,0,0,0,0,0,0,0,0,0,0,0,0,0,0,0,0,0,0,0,0,0,0,0,-6.0892,-6.0893,0,-6.1004,-6.1005,-6.1007,-6.0963,-6.096,-6.0958,-6.0955,-6.1068,-6.1073,-6.1079,0,0,0,0,0,0,0,0,0,0,0,0,0,-6.0638,-6.0643,-6.0892,-6.0893,-6.0894,-6.1004,-6.1005,-6.1007,-6.0963,-6.096,-6.0957,-6.0954,-6.1066,-6.1073,-6.1079,0,0,0,0,0,0,0,0,0,0,0,0,0,-6.0749,-6.0644,-6.0891,-6.0886,-6.0886,-6.1004,-6.1005,-6.1007,-6.0964,-6.096,-6.0956,-6.0952,-6.1064,-6.1072,-6.108,-6.1209,0,0,-6.1105,-6.1109,0,0,0,0,0,0,0,0,-6.0743,-6.0758,-6.0885,-6.0886,-6.0887,-6.0965,-6.0957,-6.1075,-6.0965,-6.0934,-6.0955,-6.0951,-6.1037,-6.1047,-6.1077,-6.1214,-6.1219,-6.1106,-6.1111,-6.1114,-6.1117,0,0,0,0,0,0,0,-6.0735,-6.0753,-6.0936,-6.0887,-6.0888,-6.0877,-6.0889,-6.0979,-6.1006,-6.0937,-6.0934,-6.0948,-6.1037,-6.1069,-6.1079,-6.122,-6.1106,-6.1113,-6.1118,-6.1121,-6.1468,-6.1472,0,0,0,0,0,0,-6.0727,-6.0747,-6.0932,-6.0939,-6.0804,-6.0885,-6.0898,-6.0944,-6.1005,-6.1011,-6.0951,-6.0946,-6.1057,-6.107,-6.1083,-6.1235,-6.1114,-6.1122,-6.1126,-6.1464,-6.1469,-6.1474,0,0,0,0,0,0,-6.0722,-6.0744,-6.0928,-6.0843,-6.0865,-6.0894,-6.0946,-6.0949,-6.098,-6.1016,-6.102,-6.0979,-6.1054,-6.1071,-6.1178,-6.1239,-6.1125,-6.1133,-6.1459,-6.1466,-6.1472,-6.1543,0,0,0,0,0,0,-6.0715,-6.0743,-6.0792,-6.0844,-6.087,-6.1021,-6.095,-6.0954,-6.0995,-6.0989,-6.1043,-6.1049,-6.1053,-6.1166,-6.1186,-6.1248,-6.1139,-6.1453,-6.1462,-6.147,-6.1535,-6.1551,-6.1565,0,0,0,0,0,-6.0706,-6.0807,-6.0794,-6.0817,-6.0932,-6.1025,-6.1039,-6.1042,-6.1,-6.1049,-6.1073,-6.1047,-6.123,-6.1177,-6.1199,-6.1265,-6.1449,-6.146,-6.1469,-6.1528,-6.1548,-6.1564,0,0,0,0,0,0,-6.0759,-6.0813,-6.08,-6.0921,-6.0969,-6.1017,-6.1079,-6.1063,-6.1123,-6.1114,-6.1116,-6.1128,-6.1238,-6.1263,-6.1202,-6.1392,-6.1333,-6.1348,-6.1371,-6.139,-6.1404,-6.1394,-6.1146,0,0,0,0,0,-6.0786,-6.0857,-6.09,-6.1003,-6.1028,-6.105,-6.109,-6.1089,-6.1138,-6.1158,-6.1188,-6.1236,-6.1305,-6.1349,-6.1415,-6.1541,-6.1551,-6.1597,-6.1612,-6.1624,-6.1635,-6.1702,-6.1722,-6.1506,-6.1506,-6.1506,0,0,-6.0839,-6.0878,-6.0922,-6.1015,-6.1051,-6.1124,-6.1067,-6.1146,-6.12,-6.1169,-6.1271,-6.1296,-6.135,-6.1466,-6.1519,-6.149,-6.1698,-6.1636,-6.1645,-6.165,-6.1714,-6.1735,-6.1753,-6.1513,-6.1511,-6.151,0,0,-6.0974,-6.1011,-6.11,-6.1139,-6.1196,-6.121,-6.1232,-6.1284,-6.1299,-6.1402,-6.138,-6.1445,-6.1563,-6.1602,-6.1638,-6.1791,-6.1769,-6.1813,-6.1888,-6.1953,-6.197,-6.1985,-6.2037,-6.2056,-6.1825,-6.1825,-6.1825,0,-6.1032,-6.1142,-6.1147,-6.1229,-6.127,-6.1248,-6.1337,-6.1375,-6.145,-6.1478,-6.1446,-6.1594,-6.1629,-6.1754,-6.1791,-6.1822,-6.1845,-6.1804,-6.1968,-6.1983,-6.1997,-6.2046,-6.2066,-6.1829,-6.1829,-6.1828,-6.1828,0,-6.1211,-6.1288,-6.1353,-6.1426,-6.1475,-6.1561,-6.1578,-6.1627,-6.1624,-6.1641,-6.1746,-6.1789,-6.1861,-6.1892,-6.1888,-6.2017,-6.1997,-6.1967,-6.1906,-6.2022,-6.2068,-6.2088,-6.1836,-6.1834,-6.1833,-6.1832,0,0,-6.1376,-6.1455,-6.1478,-6.1512,-6.1575,-6.1634,-6.1719,-6.1792,-6.1832,-6.1887,-6.1956,-6.2059,-6.2032,-6.2072,-6.2074,-6.2132,-6.2248,-6.2094,-6.2096,-6.2118,-6.2389,-6.2408,-6.243,-6.2236,-6.224,-6.2243,-6.2384,0,-6.1513,-6.1662,-6.1671,-6.1805,-6.1875,-6.1858,-6.1932,-6.1978,-6.1999,-6.2061,-6.2084,-6.2155,-6.2116,-6.2139,-6.2197,-6.2222,-6.2302,-6.2212,-6.2299,-6.2302,-6.2281,-6.2455,-6.2475,-6.2605,-6.2402,-6.2405,-6.2408,0,-6.1691,-6.1751,-6.1893,-6.1947,-6.1977,-6.2043,-6.211,-6.2171,-6.2224,-6.2235,-6.2282,-6.2276,-6.2362,-6.2304,-6.2423,-6.2362,-6.2399,-6.2417,-6.2422,-6.2426,-6.2358,-6.246,-6.2648,-6.2665,-6.2437,-6.2435,-6.2432,0,-6.1793,-6.1911,-6.201,-6.204,-6.2106,-6.2153,-6.2183,-6.2232,-6.2276,-6.2335,-6.2363,-6.2432,-6.2469,-6.2523,-6.2535,-6.2492,-6.2654,-6.2596,-6.2663,-6.2663,-6.2693,-6.269,-6.2885,-6.2725,-6.2725,-6.2724,-6.2724,0,-6.1942,-6.2028,-6.2057,-6.2118,-6.2215,-6.2225,-6.2321,-6.2347,-6.2392,-6.2458,-6.2448,-6.251,-6.2525,-6.259,-6.2601,-6.2696,-6.2714,-6.2724,-6.2725,-6.2722,-6.2721,-6.2743,-6.2732,-6.273,-6.2728,-6.2727,-6.2727,0,-6.207,-6.2093,-6.22,-6.2256,-6.2272,-6.234,-6.2387,-6.2445,-6.2466,-6.2549,-6.2569,-6.2602,-6.2678,-6.2697,-6.2788,-6.2795,-6.2907,-6.2902,-6.2889,-6.2887,-6.2951,-6.2944,-6.3163,-6.3192,-6.3017,-6.3019,-6.302,0,-6.2161,-6.2227,-6.229,-6.2334,-6.2366,-6.2436,-6.2481,-6.2495,-6.2542,-6.2609,-6.2659,-6.2735,-6.2794,-6.2917,-6.2948,-6.3017,-6.3011,-6.3084,-6.3021,-6.3016,-6.3007,-6.3001,-6.3007,-6.3093,-6.3095,-6.3097,-6.3098,0,-6.2318,-6.2327,-6.2392,-6.2462,-6.2516,-6.2571,-6.2624,-6.266,-6.2682,-6.2735,-6.2813,-6.286,-6.2954,-6.3028,-6.3099,-6.3129,-6.3116,-6.3119,-6.3137,-6.3132,-6.312,-6.3124,-6.2916,-6.3112,-6.311,-6.3109,-6.3109,-6.3108,-6.2428,-6.2486,-6.2539,-6.2612,-6.2654,-6.2705,-6.2762,-6.2791,-6.2857,-6.2933,-6.2939,-6.3023,-6.3077,-6.317,-6.3205,-6.3271,-6.3249,-6.3276,-6.3282,-6.3288,-6.3292,-6.3114,-6.3285,-6.3284,-6.3284,-6.3284,-6.3283,0,-6.2582,-6.2616,-6.2684,-6.2758,-6.2816,-6.2803,-6.2862,-6.291,-6.2984,-6.3036,-6.3096,-6.3186,-6.3259,-6.3297,-6.3369,-6.3415,-6.3411,-6.3433,-6.3427,-6.3434,-6.3309,-6.3284,-6.3434,-6.3434,-6.3434,-6.3434,-6.3434,-6.3434,-6.2668,-6.2764,-6.278,-6.2898,-6.2932,-6.3015,-6.3049,-6.3096,-6.3136,-6.3237,-6.3298,-6.3323,-6.337,-6.3446,-6.3512,-6.3521,-6.3546,-6.357,-6.3577,-6.3458,-6.3443,-6.3428,-6.3404,-6.3577,-6.3577,-6.3695,-6.3696,-6.3697]},{"header":{"parameterUnit":"m.s-1","parameterCategory":1,"la1":30.2991,"la2":30.254,"lo1":-89.0895,"lo2":-89.0444,"dy":0.0017,"dx":0.0017,"nx":28,"ny":28,"refTime":"2024-04-08T09:00:00:Z","depth":0,"parameterNumber":3,"parameterNumberName":"V-component_of_WINDS"},"data":[0,0,0,0,0,0,0,0,0,0,0,0,0,0,0,0,0,0,0,0,0,0,0,0,0,0,0,0,0,0,0,0,0,0,0,0,0,0,0,0,0,0,0,0,0,0,0,0,0,0,0,0,0,0,0,0,0,0,2.1608,2.1609,0,2.1651,2.1651,2.1652,2.1657,2.1656,2.1656,2.1656,2.1697,2.1699,2.17,0,0,0,0,0,0,0,0,0,0,0,0,0,2.1533,2.1534,2.1608,2.1609,2.1609,2.1651,2.1651,2.1652,2.1657,2.1656,2.1656,2.1655,2.1697,2.1698,2.17,0,0,0,0,0,0,0,0,0,0,0,0,0,2.1569,2.1535,2.1608,2.1617,2.1618,2.165,2.1651,2.1652,2.1657,2.1656,2.1656,2.1655,2.1696,2.1698,2.1701,2.1726,0,0,2.1707,2.1708,0,0,0,0,0,0,0,0,2.1567,2.1572,2.1615,2.1616,2.1618,2.1648,2.164,2.1677,2.1657,2.1642,2.1656,2.1655,2.1681,2.1685,2.1694,2.1728,2.173,2.1708,2.1709,2.171,2.171,0,0,0,0,0,0,0,2.1565,2.157,2.1625,2.1616,2.1617,2.1619,2.1624,2.1647,2.1665,2.1643,2.1644,2.1649,2.1682,2.1692,2.1695,2.1731,2.1707,2.1709,2.1711,2.1712,2.1791,2.1792,0,0,0,0,0,0,2.1561,2.1568,2.1624,2.1626,2.1591,2.1621,2.1626,2.1639,2.1664,2.1668,2.1649,2.1649,2.1688,2.1692,2.1696,2.173,2.171,2.1712,2.1713,2.1791,2.1792,2.1792,0,0,0,0,0,0,2.1559,2.1566,2.1622,2.1597,2.1605,2.1623,2.1637,2.164,2.165,2.1669,2.1672,2.1656,2.1688,2.1693,2.172,2.1731,2.1713,2.1715,2.179,2.1791,2.1792,2.1795,0,0,0,0,0,0,2.1557,2.1565,2.1575,2.1598,2.1606,2.1644,2.1638,2.1641,2.1654,2.1654,2.1676,2.1679,2.1688,2.1716,2.1722,2.1734,2.1717,2.1789,2.179,2.1792,2.1794,2.1797,2.1798,0,0,0,0,0,2.1554,2.1573,2.1575,2.1582,2.1619,2.1645,2.165,2.166,2.1655,2.1665,2.1678,2.1678,2.1729,2.1719,2.1725,2.1738,2.1788,2.179,2.1791,2.1793,2.1796,2.1798,0,0,0,0,0,0,2.1549,2.1576,2.1578,2.1605,2.1623,2.1646,2.1659,2.1662,2.1681,2.168,2.1691,2.1696,2.1722,2.1733,2.1721,2.1766,2.1758,2.1761,2.1757,2.176,2.1762,2.1759,2.1719,0,0,0,0,0,2.1552,2.1571,2.1593,2.1615,2.1624,2.164,2.1652,2.1658,2.1677,2.1684,2.1698,2.1716,2.1736,2.1749,2.1768,2.1797,2.1802,2.1809,2.1811,2.1812,2.1814,2.1832,2.1835,2.1798,2.1798,2.1798,0,0,2.1556,2.1573,2.1584,2.1615,2.1629,2.1649,2.1646,2.1667,2.1682,2.1687,2.1713,2.1725,2.1745,2.1773,2.1786,2.1783,2.1826,2.1815,2.1816,2.1817,2.1834,2.1837,2.1841,2.1799,2.1799,2.1799,0,0,2.1575,2.1589,2.161,2.1625,2.1648,2.1659,2.1664,2.1687,2.1695,2.1722,2.1726,2.1745,2.1779,2.1794,2.1806,2.1834,2.1835,2.184,2.185,2.1867,2.187,2.1872,2.1883,2.1886,2.1842,2.1842,2.1842,0,2.1577,2.1608,2.162,2.1641,2.1655,2.1662,2.1683,2.1697,2.1725,2.1734,2.173,2.1775,2.1789,2.1821,2.1829,2.1838,2.1845,2.1836,2.1868,2.1871,2.1874,2.1884,2.1888,2.1843,2.1843,2.1843,2.1842,0,2.161,2.1632,2.1646,2.1673,2.1689,2.171,2.1726,2.174,2.1746,2.1758,2.1786,2.1804,2.1828,2.1836,2.1842,2.187,2.1867,2.1866,2.1858,2.1877,2.1887,2.1891,2.1843,2.1843,2.1843,2.1843,0,0,2.1624,2.1661,2.1666,2.1679,2.1706,2.1723,2.1745,2.177,2.1782,2.1802,2.1821,2.1851,2.1851,2.1865,2.1873,2.1887,2.1909,2.1884,2.1885,2.1888,2.1943,2.1943,2.1947,2.1912,2.1912,2.1913,2.1941,0,2.1646,2.1686,2.1699,2.1733,2.1754,2.1762,2.1782,2.1801,2.1813,2.1833,2.1846,2.1868,2.1865,2.1874,2.1889,2.1903,2.192,2.1902,2.193,2.193,2.1923,2.1952,2.1953,2.1978,2.1945,2.1946,2.1946,0,2.1676,2.1698,2.1734,2.176,2.1769,2.1786,2.1811,2.183,2.1852,2.186,2.1877,2.1884,2.1909,2.1901,2.1936,2.1923,2.1935,2.1944,2.1946,2.1948,2.1939,2.1955,2.1986,2.199,2.1952,2.1951,2.1951,0,2.1684,2.1722,2.1748,2.176,2.1791,2.1803,2.1817,2.1839,2.1853,2.1875,2.1885,2.1909,2.1922,2.1941,2.1955,2.1948,2.1988,2.1982,2.1996,2.1996,2.2003,2.2002,2.2036,2.2012,2.2012,2.2012,2.2012,0,2.1706,2.1728,2.1753,2.1769,2.1794,2.181,2.1834,2.1848,2.1868,2.1888,2.1897,2.1915,2.1933,2.1954,2.1965,2.1992,2.1998,2.2005,2.2008,2.2004,2.2003,2.2012,2.201,2.2013,2.2012,2.2012,2.2012,0,2.1718,2.1735,2.1765,2.1793,2.1801,2.1818,2.1842,2.1859,2.1873,2.1898,2.1905,2.1926,2.1952,2.1968,2.2,2.2007,2.2037,2.2039,2.203,2.2031,2.2044,2.2043,2.2085,2.2091,2.2063,2.2063,2.2063,0,2.1731,2.1748,2.1779,2.1793,2.1807,2.183,2.1845,2.1862,2.1878,2.1906,2.192,2.1946,2.1968,2.2008,2.2026,2.2051,2.2054,2.2067,2.2058,2.2054,2.2054,2.2053,2.2055,2.2068,2.2068,2.2069,2.2069,0,2.1752,2.176,2.1783,2.1809,2.1828,2.1849,2.187,2.1881,2.1902,2.192,2.1946,2.1963,2.1997,2.2023,2.2051,2.2065,2.207,2.2072,2.2077,2.2073,2.2066,2.207,2.2034,2.2071,2.207,2.207,2.207,2.207,2.1765,2.1781,2.1806,2.1831,2.1849,2.187,2.1887,2.1904,2.1927,2.1956,2.1965,2.1993,2.2017,2.2054,2.2069,2.2092,2.209,2.2096,2.2098,2.2099,2.21,2.2064,2.2097,2.2097,2.2096,2.2096,2.2096,0,2.1787,2.1804,2.1827,2.1857,2.1878,2.1883,2.1907,2.1924,2.1948,2.1971,2.1993,2.2024,2.205,2.2072,2.2099,2.2113,2.2116,2.2119,2.2118,2.2121,2.2099,2.2093,2.2116,2.2116,2.2116,2.2116,2.2116,2.2116,2.1801,2.1829,2.1841,2.1879,2.1896,2.1924,2.1938,2.1957,2.1975,2.201,2.2032,2.2046,2.2069,2.2098,2.2122,2.2128,2.2138,2.214,2.2146,2.2125,2.2123,2.2121,2.2114,2.2142,2.2142,2.2167,2.2167,2.2167]}]]